DB0BGL Weather Reports


time (UTC)temp
C
wind
direction
speed
KPH
gust
KPH
rain 1hr
cm
rain 24hr
cm
rain mn
cm
humidity
%
barometer
mb
20260902065034 13 180 0.0 0.0 0.00 0.00 0.00 68
20260902064033 14 180 0.0 0.0 0.00 0.00 0.00 66
20260902063033 15 180 0.0 0.0 0.00 0.00 0.00 65
20260902062032 16 180 0.0 0.0 0.00 0.00 0.00 61
20260902061032 17 180 0.0 0.0 0.00 0.00 0.00 57
20260902060032 16 180 0.0 0.0 0.00 0.00 0.00 59
20260902055031 16 180 0.0 0.0 0.00 0.00 0.00 61
20260902054030 15 180 0.0 0.0 0.00 0.00 0.00 65
20260902053035 13 180 0.0 0.0 0.00 0.00 0.00 72
20260902052029 12 180 0.0 0.0 0.00 0.00 0.00 81
20260902051028 10 180 0.0 0.0 0.00 0.00 0.00 91
20260902050028 8 180 0.0 0.0 0.00 0.00 0.00 98
20260901173055 11 57 0.0 0.0 0.00 0.00 0.00 84
20260901172054 11 57 0.0 0.0 0.00 0.00 0.00 84
20260901171054 12 57 0.0 0.0 0.00 0.00 0.00 80
20260901170053 12 57 0.0 0.0 0.00 0.00 0.00 77
20260901165054 12 57 0.0 0.0 0.00 0.00 0.00 77
20260901164052 12 57 0.0 0.0 0.00 0.00 0.00 78
20260901163052 12 57 0.0 0.0 0.00 0.00 0.00 78
20260901162122 12 57 0.0 0.0 0.00 0.00 0.00 78
20260901162051 12 57 0.0 0.0 0.00 0.00 0.00 78
20260901161050 12 57 0.0 0.0 0.00 0.00 0.00 100
20260901160052 13 57 0.0 0.0 0.00 0.00 0.00 72
20260901155049 14 57 0.0 0.0 0.00 0.00 0.00 72
20260901154049 15 57 0.0 0.0 0.00 0.00 0.00 71
20260901153048 14 57 0.0 0.0 0.00 0.00 0.00 72
20260901152047 13 57 0.0 0.0 0.00 0.00 0.00 73
20260901151047 13 57 0.0 0.0 0.00 0.00 0.00 73
20260901150046 13 57 0.0 0.0 0.00 0.00 0.00 73
20260901145046 13 57 0.0 0.0 0.00 0.00 0.00 72
20260901144045 14 57 0.0 0.0 0.00 0.00 0.00 65
20260901143044 14 57 0.0 0.0 0.00 0.00 0.00 71
20260901142044 15 57 0.0 0.0 0.00 0.00 0.00 100
20260901141043 15 57 0.0 0.0 0.00 0.00 0.00 68
20260901140043 15 57 0.0 0.0 0.00 0.00 0.00 100
20260901135042 15 57 0.0 0.0 0.00 0.00 0.00 70
20260901134042 14 57 0.0 0.0 0.00 0.00 0.00 71
20260901133042 15 57 0.0 0.0 0.00 0.00 0.00 68
20260901132040 15 57 0.0 0.0 0.00 0.00 0.00 100
20260901131040 15 57 0.0 0.0 0.00 0.00 0.00 67
20260901130039 14 57 0.0 0.0 0.00 0.00 0.00 71
20260901125039 13 57 0.0 0.0 0.00 0.00 0.00 72
20260901124038 13 57 0.0 0.0 0.00 0.00 0.00 73
20260901123037 13 57 0.0 0.0 0.00 0.00 0.00 76
20260901122037 13 57 0.0 0.0 0.00 0.00 0.00 75
20260901121036 13 57 0.0 0.0 0.00 0.00 0.00 76
20260901120036 13 57 0.0 0.0 0.00 0.00 0.00 73
20260901114035 15 54 0.0 0.0 0.00 0.00 0.00 66
20260901113034 15 54 0.0 0.0 0.00 0.00 0.00 65
20260901112033 16 54 0.0 0.0 0.00 0.00 0.00 64
20260901111033 16 54 0.0 0.0 0.00 0.00 0.00 63
20260901110032 16 54 0.0 0.0 0.00 0.00 0.00 100
20260901105032 16 54 0.0 0.0 0.00 0.00 0.00 58
20260901104031 16 54 0.0 0.0 0.00 0.00 0.00 100
20260901103030 16 54 0.0 0.0 0.00 0.00 0.00 60
20260901102030 15 54 0.0 0.0 0.00 0.00 0.00 63
20260901101030 15 54 0.0 0.0 0.00 0.00 0.00 64
20260901100029 14 54 0.0 0.0 0.00 0.00 0.00 64
20260901094028 15 63 0.0 0.0 0.00 0.00 0.00 61
20260901093027 16 63 0.0 6.4 0.00 0.00 0.00 58
20260901092026 15 80 0.0 0.0 0.00 0.00 0.00 57
20260901091026 15 52 0.0 9.7 0.00 0.00 0.00 50
20260901090025 16 53 0.0 4.8 0.00 0.00 0.00 54
20260901085025 17 52 0.0 0.0 0.00 0.00 0.00 53
20260901084024 17 52 0.0 0.0 0.00 0.00 0.00 50
20260901083024 16 52 0.0 0.0 0.00 0.00 0.00 52
20260901082023 16 42 0.0 3.2 0.00 0.00 0.00 54
20260901081022 14 59 0.0 11.3 0.00 0.00 0.00 57
20260901080022 13 66 0.0 11.3 0.00 0.00 0.00 57
20260901075021 12 60 0.0 3.2 0.00 0.00 0.00 61
20260901074020 11 54 3.2 3.2 0.00 0.00 0.00 67
20260901073020 10 68 1.6 14.5 0.00 0.00 0.00 69
20260901072019 10 54 0.0 0.0 0.00 0.00 0.00 75
20260901071019 11 56 0.0 12.9 0.00 0.00 0.00 66
20260901070018 11 60 0.0 11.3 0.00 0.00 0.00 65